Terug naar catalogus

STARLINK-34270

ActiefCommunicatieVLEO
NORAD 64355·PAYLOAD·🇺🇸 United States

Gelanceerd Jun 13, 2025 vanaf Vandenberg Space Force Base

Loading…

Volgende Passages (komende 24 uur)

TLE

VersSource: CelesTrak SupGP

Epoch: Sep 14, 2026, 21:10 UTC

1 64355C 25126M   26257.88243056  .00067473  00000+0  23504-2 0  2576
2 64355  69.9999 276.0052 0003523 268.7470 210.7313 15.29498855    19

Volg STARLINK-34270 in realtime met AllMySat

Download on the App Store